Location: *
(58.7167°N, 26.1833°E)
Time: 18:12:36
(UTC+00:00)

MTI - Pass Details

Date: 25 August 2019
Orbit: 400 x 412 km, 97.5° (Epoch: 15 September)

Event Time Altitude Azimuth Distance (km) Brightness Sun altitude
Rises 18:45:40 0° 21° (NNE) 2,364 7.8 -8.6°
Reaches altitude 10° 18:47:48 10° 31° (NNE) 1,494 6.6 -8.8°
Maximum altitude 18:50:44 33° 98° (E) 711 4.5 -9.1°
Drops below altitude 10° 18:53:38 10° 165° (SSE) 1,475 6.0 -9.4°
Enters shadow 18:53:51 - 167° (SSE) 1,561 6.2 -9.4°
